Weather History for Juliana Airport, St. Martin

Change the Weather History Date:

Wednesday, January 29, 2014

  Actual Average Record
Temperature  
Mean Temperature 80 °F -  
Max Temperature 83 °F 81 °F 84 °F (1998)
Min Temperature 76 °F 72 °F 69 °F (2002)
Cooling Degree Days 14    
Growing Degree Days 30 (Base 50)    
Moisture  
Dew Point 67 °F    
Average Humidity 65    
Maximum Humidity 74    
Minimum Humidity 50    
Precipitation  
Precipitation 0.00 in 0.06 in - ()
Sea Level Pressure  
Sea Level Pressure 30.07 in    
Wind  
Wind Speed 13 mph ()    
Max Wind Speed 21 mph    
Max Gust Speed 29 mph    
Visibility 6.2 miles    
Events Rain    
Averages and records for this station are not official NWS values.
T = Trace of Precipitation, MM = Missing Value Source: Averaged Metar Reports

Daily Weather History Graph

Daily Weather History Graph

Search for Another Location

Airport:

Trip Planner

Search our weather history database for the weather conditions in past years. The results will help you decide how hot, cold, wet, or windy it might be!

Date:

Astronomy

Jan. 29, 2014 Rise Set
Actual Time 6:45 AM AST 6:05 PM AST
Civil Twilight 6:23 AM AST 6:28 PM AST
Nautical Twilight 5:56 AM AST 6:54 PM AST
Astronomical Twilight 5:30 AM AST 7:20 PM AST
Moon 5:17 AM AST (1/29) 4:58 PM AST (1/29)
Length of Visible Light 12h 05m
Length of Day
11h 19m
Waning Crescent, 2% of the Moon is Illuminated
Jan 29
Waning Crescent
Jan 30
New
Feb 6
First Quarter
Feb 14
Full
Feb 22
Last Quarter

Hourly Weather History & Observations

Time (AST) Temp. Heat Index Dew Point Humidity Pressure Visibility Wind Dir Wind Speed Gust Speed Precip Events Conditions
12:00 AM 77.0 °F - 66.2 °F 69% 30.09 in 6.2 mi East 12.7 mph - N/A   Partly Cloudy
1:00 AM 77.0 °F - 66.2 °F 69% 30.09 in 6.2 mi East 12.7 mph - N/A   Partly Cloudy
2:00 AM 77 °F - 67 °F 63% 30.08 in 25 mi East 13.8 mph - -   Scattered Clouds
2:00 AM 77.0 °F - 66.2 °F 69% 30.06 in 6.2 mi East 13.8 mph - N/A   Partly Cloudy
3:00 AM 77.0 °F - 66.2 °F 69% 30.06 in 6.2 mi East 12.7 mph - N/A   Partly Cloudy
4:00 AM 77.0 °F - 66.2 °F 69% 30.04 in 6.2 mi East 13.8 mph - N/A   Partly Cloudy
5:00 AM 77 °F - 66 °F 61% 30.06 in 25 mi East 11.5 mph - -   Scattered Clouds
5:00 AM 77.0 °F - 66.2 °F 69% 30.04 in 6.2 mi East 11.5 mph - N/A   Partly Cloudy
6:00 AM 77.0 °F - 66.2 °F 69% 30.06 in 6.2 mi East 12.7 mph - N/A   Partly Cloudy
7:00 AM 77.0 °F - 66.2 °F 69% 30.06 in 6.2 mi East 15.0 mph - N/A   Partly Cloudy
8:00 AM 79 °F - 67 °F 58% 30.10 in 28 mi East 13.8 mph - -   Scattered Clouds
8:00 AM 78.8 °F - 66.2 °F 65% 30.09 in 6.2 mi East 15.0 mph - N/A   Partly Cloudy
9:00 AM 78.8 °F - 66.2 °F 65% 30.09 in 6.2 mi East 15.0 mph - N/A   Partly Cloudy
10:00 AM 80.6 °F 82.7 °F 66.2 °F 61% 30.12 in 6.2 mi East 17.3 mph - N/A   Partly Cloudy
11:00 AM 82 °F - 67 °F 50% 30.13 in 25 mi East 20.7 mph - -   Scattered Clouds
11:00 AM 80.6 °F 83.2 °F 68.0 °F 65% 30.12 in 6.2 mi East 17.3 mph - N/A   Partly Cloudy
12:00 PM 80.6 °F 83.2 °F 68.0 °F 65% 30.09 in 6.2 mi East 15.0 mph - N/A Rain Light Rain Showers
1:00 PM 80.6 °F 83.2 °F 68.0 °F 65% 30.06 in 6.2 mi East 16.1 mph 28.8 mph N/A   Mostly Cloudy
2:00 PM 82 °F - 66 °F 50% 30.06 in 22 mi East 19.6 mph - - Rain Light Rain Showers
2:00 PM 82.4 °F 84.6 °F 66.2 °F 58% 30.04 in 6.2 mi East 19.6 mph - N/A   Scattered Clouds
3:00 PM 80.6 °F 83.2 °F 68.0 °F 65% 30.01 in 6.2 mi East 15.0 mph - N/A   Mostly Cloudy
4:00 PM 82.4 °F 85.4 °F 68.0 °F 62% 30.01 in 6.2 mi East 15.0 mph - N/A   Scattered Clouds
5:00 PM 81 °F - 66 °F 52% 30.03 in 28 mi East 17.3 mph - -   Partly Cloudy
5:00 PM 80.6 °F 83.2 °F 68.0 °F 65% 30.01 in 6.2 mi East 16.1 mph - N/A   Scattered Clouds
6:00 PM 78.8 °F - 68.0 °F 69% 30.04 in 6.2 mi East 15.0 mph - N/A   Partly Cloudy
7:00 PM 78.8 °F - 68.0 °F 69% 30.04 in 6.2 mi East 16.1 mph - N/A   Partly Cloudy
8:00 PM 78 °F - 67 °F 61% 30.07 in 22 mi East 11.5 mph - -   Partly Cloudy
8:00 PM 78.8 °F - 68.0 °F 69% 30.06 in 6.2 mi East 12.7 mph - N/A   Scattered Clouds
9:00 PM 78.8 °F - 68.0 °F 69% 30.06 in 6.2 mi ENE 13.8 mph 27.6 mph N/A   Partly Cloudy
10:00 PM 77.0 °F - 68.0 °F 74% 30.09 in 6.2 mi East 12.7 mph - N/A   Partly Cloudy
11:00 PM 78 °F - 68 °F 63% 30.10 in 22 mi East 12.7 mph - -   Scattered Clouds
11:00 PM 77.0 °F - 68.0 °F 74% 30.09 in 6.2 mi East 12.7 mph - N/A   Partly Cloudy